Powrót do katalogu

STARLINK-35245

AktywnyŁącznośćSSO
NORAD 65599·PAYLOAD·🇺🇸 United States

Wystrzelony Sep 13, 2025 z Cape Canaveral Space Force Station

Loading…

Następne Przeloty (najbliższe 24 godziny)

TLE

ŚwieżeSource: CelesTrak SupGP

Epoka: Sep 14, 2026, 21:27 UTC

1 65599C 25207H   26257.89423611 -.00029255  00000+0 -20312-2 0  2577
2 65599  97.2852 320.6107 0001667 120.3575 318.1116 15.05671310    12

Śledź STARLINK-35245 w czasie rzeczywistym z AllMySat

Download on the App Store